DECAYED

STARLINK-2349, 47889 (Decayed)

Orbit data source: Space-Track

STARLINK-2349, 47889 was a payload satellite owned by SpaceX/Seattle (US) in LEO that was launched on Sun, 14 Mar 2021 UTC via an FALCON 9 launch vehicle from the Air Force Eastern Test Range (AFETR). Payload-class satellites include a variety of spacecraft equipped with specific instruments for various scientific and technological missions. These include communications satellites like Starlink; space stations such as the ISS; scientific satellites like the Hubble; Earth observation satellites from companies like Planet Labs, Umbra, and HawkEye 360; GPS; miniature CubeSats for education and research; and military/defense satellites.

Not visible in the next 10 days
Identifier
47889, 2021-021AF
Orbit
Decayed
Country
Flag of USUS
Related business
Manufacturer
SpaceX/Seattle
Mission
Decayed Commercial Communications
Bus & Motor
STARLINK, Unknown motor
Mass
260 kg wet, ~248 kg dry
Launch date (UTC)
2021-03-14 (5 years ago)
Launch vehicle
FALCON 9
Launch site
Air Force Eastern Test Range (AFETR)
Object type
Payload
Rocket body
Debris
Shape & HBR
Box + 1 Pan, 10.1 m
Radar Cross Section
13.562 m², Large (>1 m²)

Expand to show TLE details & history
Last TLE update: 1 year ago

TLE from 1 year ago
0 STARLINK-2349
1 47889U 21021AF  25013.85557653  .23343773  12640-4  36218-3 0  9999
2 47889  53.0252 327.0335 0004366 310.6763 141.2979 16.48244316212842
Epoch: 2025-01-13T20:32Z
TLE epoch observation values (Epoch: 2025-01-13T20:32:01.812Z)
Latitude
53.13767°
Longitude
-1.20888°
Altitude
152.647 km
Speed
7.82 km/s
True Right ascension
04h 01m 28s
True Declination
52° 57' 26"
Sunlit
Object was in full shadow at epoch
Visualization orbit readout
Latitude
Unknown
Longitude
Unknown
Altitude
Unknown
Speed
Unknown
Apparent Right ascension
Unknown
Apparent Declination
Unknown
Sunlit
N/A
Visualization observer readout
Local Sidereal Time
23:07:30
Azimuth
Unknown
Elevation
Unknown
Doppler factor
Unknown
Orbital elements
Apogee altitude
147.103 km
Perigee altitude
141.407 km
Semi-major axis
6,522.392 km
Eccentricity
0.00044
Inclination
53.0252°
RAAN
327.0335°
Arg. of periapsis
310.6763°
True anomaly
141.32917°
Mean anomaly
141.2979°
Eccentric anomaly
141.31354°
Mean motion
4.12034 °/min
Orbital period
87.37 mins
BSTAR
0.00036218
Loading maneuver chart data...
Computing Atmospheric mass density...

Documentation

Showing up to 5 results
|